This is the latest recevied weather packets stored in our database for station/object N4WFF. If no packets are shown the sender has not sent any weather packets the latest 10 day(s).
| Time | Temp. | Humidity | Pressure | Rain* | Wind** | Luminosity | Snow |
|---|---|---|---|---|---|---|---|
| 1778113257 | 25.56° C | 81% | 1012.8 hPa | 0 mm | - | 5 W/m² | - |
| 1778112956 | 25.56° C | 81% | 1013 hPa | 0 mm | - | 9 W/m² | - |
| 1778112656 | 25.56° C | 81% | 1013.2 hPa | 0 mm | - | 6 W/m² | - |
| 1778112356 | 26.11° C | 81% | 1013.2 hPa | 0 mm | - | 5 W/m² | - |
| 1778112056 | 26.11° C | 81% | 1013.1 hPa | 0 mm | - | 7 W/m² | - |
| 1778111756 | 26.11° C | 80% | 1013.1 hPa | 0 mm | - | 16 W/m² | - |
| 1778111455 | 26.11° C | 80% | 1013.1 hPa | 0 mm | - | 17 W/m² | - |
| 1778111155 | 26.11° C | 80% | 1013.1 hPa | 0 mm | - | 10 W/m² | - |
| 1778110856 | 26.11° C | 80% | 1013.2 hPa | 0 mm | - | 10 W/m² | - |
| 1778110556 | 26.67° C | 80% | 1013.1 hPa | 0 mm | - | 5 W/m² | - |
| 1778110255 | 26.67° C | 79% | 1013.2 hPa | 0 mm | - | 5 W/m² | - |
| 1778109956 | 26.67° C | 79% | 1013.2 hPa | 0 mm | - | 4 W/m² | - |
| 1778109656 | 26.67° C | 79% | 1013.2 hPa | 0 mm | - | 5 W/m² | - |
| 1778109356 | 26.67° C | 78% | 1013.1 hPa | 0 mm | - | 10 W/m² | - |
| 1778109055 | 27.22° C | 77% | 1012.9 hPa | 0 mm | - | 23 W/m² | - |
| 1778108755 | 27.22° C | 77% | 1012.9 hPa | 0 mm | - | 33 W/m² | - |
| 1778108456 | 27.22° C | 76% | 1013 hPa | 0 mm | - | 82 W/m² | - |
| 1778108156 | 27.22° C | 76% | 1012.8 hPa | 0 mm | - | 114 W/m² | - |
| 1778107856 | 27.22° C | 76% | 1012.9 hPa | 0 mm | - | 131 W/m² | - |
| 1778107555 | 27.22° C | 76% | 1012.9 hPa | 0 mm | - | 60 W/m² | - |
| 1778107256 | 27.22° C | 75% | 1012.8 hPa | 0 mm | - | 37 W/m² | - |
| 1778106958 | 27.22° C | 74% | 1012.7 hPa | 0 mm | - | 33 W/m² | - |
| 1778106656 | 27.78° C | 74% | 1012.6 hPa | 0 mm | - | 47 W/m² | - |
| 1778106356 | 27.78° C | 73% | 1012.5 hPa | 0 mm | - | 44 W/m² | - |
| 1778106056 | 27.78° C | 72% | 1012.4 hPa | 0 mm | - | 88 W/m² | - |
* Rain latest hour (hover to see other rain measurements)
** Current wind speed in m/s (hover to see current wind gust speed)